Hourly Data Report for October 11, 2015

All times are specified in Local Standard Time (LST). Add 1 hour to adjust for Daylight Saving Time where and when it is observed.

ST LEONARD CS
NEW BRUNSWICK

47°09'28.050" N
67°49'55.014" W
245.00 m
810I001
71019
WIY

Download Data

Hourly Data (October 2015)
Hourly Data Report for October 11, 2015
Temp Definition
°C
Dew Point Temp Definition
°C
Rel Hum Definition
%
Wind Dir Definition
10's deg

Wind Spd Definition
km/h
Visibility Definition
km
Stn Press Definition
kPa
Hmdx Definition


Wind Chill Definition


Weather Definition


TIME
00:00 0.7 -2.3 81 15 9   98.30     LegendNANA
01:00 1.3 -1.3 83 19 10   98.29     LegendNANA
02:00 0.7 -0.6 91 13 7   98.21     LegendNANA
03:00 0.4 0.0 97 19 10   98.15     LegendNANA
04:00 0.3 0.0 98 17 11   98.04     LegendNANA
05:00 0.5 0.3 99 16 11   97.97     LegendNANA
06:00 1.1 0.6 96 16 16   97.89     LegendNANA
07:00 1.9 1.2 95 17 12   97.82     LegendNANA
08:00 3.0 2.0 93 19 14   97.77     LegendNANA
09:00 3.6 2.4 92 19 12   97.72     LegendNANA
10:00 4.4 3.2 92 20 14   97.69     LegendNANA
11:00 5.5 4.1 91 21 14   97.66     LegendNANA
12:00 6.1 4.9 92 18 12   97.64     LegendNANA
13:00 6.7 5.7 94 19 11   97.60     LegendNANA
14:00 7.0 5.8 92 19 13   97.54     LegendNANA
15:00 7.3 5.9 91 20 11   97.51     LegendNANA
16:00 7.4 6.0 91 19 9   97.54     LegendNANA
17:00 7.4 6.1 92 18 8   97.59     LegendNANA
18:00 6.9 6.2 95 17 7   97.63     LegendNANA
19:00 6.9 6.5 97 17 10   97.65     LegendNANA
20:00 7.1 6.8 98 16 8   97.67     LegendNANA
21:00 7.2 6.9 97 17 6   97.68     LegendNANA
22:00 7.5 6.7 95 19 8   97.70     LegendNANA
23:00 7.3 6.6 95 18 10   97.73     LegendNANA

Notes on Data Quality.

Legend

  • E = Estimated
  • M = Missing
  • NA = Not Available
  • ‡ = Partner data that is not subject to review by the National Climate Archives
Date modified: